Home > Weather > Guadalajara > Past weeks

Flag for Mexico Past Weather in Guadalajara, Jalisco, Mexico — Yesterday and Last 2 Weeks

Now
73 °F

Broken clouds.


Feels Like: 76 °F
Forecast: 61 / 75 °F
Wind: 5 mph from West

Location: Don Miguel / Guadalaj

Current Time: Jul 28, 2016 at 7:20:02 PM

Latest Report: Jul 28, 2016 at 6:50 PM


Visibility: 4 mi

Pressure: 29.82 "Hg (24.96 "Hg at 1543m altitude)

Humidity: 65%

Dew Point: 61 °F

Location of GuadalajaraLocation

Past Weather in Guadalajara — Graph

°F

Guadalajara Temperature Yesterday

Maximum temperature yesterday: 81 °F (at 2:48 PM)
Minimum temperature yesterday: 63 °F (at 1:47 AM)
Average temperature yesterday: 70 °F

High & Low Weather Summary for the Past Weeks

 TemperatureHumidityPressure
High84 °F (Jul 26, 5:48 PM)94% (Jul 14, 5:48 AM)30.31 "Hg (Jul 14, 5:48 AM)
Low59 °F (Jul 14, 7:53 AM)37% (Jul 13, 5:47 PM)29.59 "Hg (Jul 15, 6:55 PM)
Average69 °F70%30.10 "Hg
* Reported Jul 13 5:47 PM — Jul 28 5:48 PM, Guadalajara, Weather by CustomWeather, © 2016

Note: Actual official high and low records may vary slightly from our data, if they occured in-between our weather recording intervals... More about our weather records

Advertising

Guadalajara Weather History for the Previous 24 Hours

Scroll right to see more
 ConditionsComfort  
Time TempWeatherWind HumidityBarometerVisibility
5:48 PM
Thu, Jul 28
72 °FMore clouds than sun.No wind65%30.13 "Hg4 mi
4:46 PM72 °FMore clouds than sun.6 mph65%30.14 "Hg4 mi
3:49 PM72 °FMore clouds than sun.No wind69%29.86 "Hg5 mi
2:48 PM70 °FMostly cloudy.No wind69%30.20 "Hg5 mi
1:51 PM68 °FMostly cloudy.No wind69%30.21 "Hg5 mi
12:53 PM66 °FMostly cloudy.3 mph78%29.93 "Hg4 mi
11:49 AM64 °FMostly cloudy.5 mph88%30.23 "Hg4 mi
10:48 AM63 °FDrizzle. Mostly cloudy.No wind88%30.24 "Hg3 mi
8:47 AM61 °FLight rain. Mostly cloudy.3 mph94%30.21 "Hg3 mi
7:49 AM61 °FLight rain. Mostly cloudy.3 mph94%30.19 "Hg3 mi
6:45 AM61 °FLight rain. Mostly cloudy.12 mph94%29.89 "Hg7 mi
5:45 AM61 °FLight rain. Mostly cloudy.12 mph94%30.19 "Hg7 mi
1:45 AM66 °FMostly cloudy.3 mph88%30.20 "Hg10 mi
12:50 AM66 °FPassing clouds.2 mph83%29.86 "Hg10 mi
10:50 PM
Wed, Jul 27
66 °FPassing clouds.5 mph83%30.16 "Hg10 mi
9:47 PM68 °FPassing clouds.3 mph83%29.86 "Hg10 mi
8:51 PM68 °FCloudy.7 mph83%30.14 "Hg10 mi
7:52 PM64 °FRain. Cloudy.18 mph78%30.11 "Hg5 mi
Weather by CustomWeather, © 2016

See weather overviewHow to use our weather pages